Location: Brabourne
(51.1333°N, 1.0000°E)
Time: 12:41:17
(UTC+00:00)

FALCON 9 DEB - Visible Passes

Search period start: 22 October 2021 00:00
Search period end: 01 November 2021 00:00
Orbit: 354 x 363 km, 53.0° (Epoch: 21 October)

Date Brightness Start Highest point End Pass type
(mag) Time Alt. Az. Time Alt. Az. Time Alt. Az.
26 Oct 5.9 19:15:09 10° SW 19:15:18 11° SW 19:15:18 11° SW visible
27 Oct 4.3 18:08:47 10° SSW 18:11:05 21° SE 18:11:05 21° SE visible
28 Oct 3.7 18:36:14 10° SW 18:38:26 39° SSW 18:38:26 39° SSW visible
29 Oct 4.2 17:29:39 10° SSW 17:32:08 24° SE 17:33:57 14° E visible
29 Oct 5.0 19:04:14 10° WSW 19:05:39 25° WSW 19:05:39 25° WSW visible
30 Oct 2.9 17:57:07 10° SW 18:00:02 55° SSE 18:01:03 34° E visible
30 Oct 6.2 19:32:25 10° W 19:32:44 12° W 19:32:44 12° W visible
31 Oct 2.7 18:25:03 10° WSW 18:28:02 79° NNW 18:28:02 79° NNW visible
